| time (UTC) | temp F | wind direction | speed knots | gust knots | rain 1hr in | rain 24hr in | rain mn in | humidity % | barometer mb |
| 20260504081536 | 50 | 162 | 2.6 | 6.1 | 0.00 | 0.00 | 0.00 | 72 | 1005.7 |
| 20260504044553 | 55 | 179 | 6.1 | 9.6 | 0.00 | 0.00 | 0.00 | 61 | 1007.4 |
| 20260504043046 | 55 | 186 | 4.3 | 13.9 | 0.00 | 0.00 | 0.00 | 60 | 1007.6 |
| 20260504041543 | 55 | 172 | 6.1 | 11.3 | 0.00 | 0.00 | 0.00 | 60 | 1007.6 |
| 20260504040054 | 56 | 185 | 5.2 | 13.9 | 0.00 | 0.00 | 0.00 | 59 | 1007.7 |
| 20260504034555 | 56 | 184 | 6.1 | 12.2 | 0.00 | 0.00 | 0.00 | 59 | 1007.9 |
| 20260504033054 | 55 | 184 | 3.5 | 8.7 | 0.00 | 0.00 | 0.00 | 61 | 1008.1 |
| 20260504031538 | 54 | 211 | 3.5 | 8.7 | 0.00 | 0.00 | 0.00 | 63 | 1008.2 |
| 20260504030044 | 54 | 187 | 2.6 | 7.0 | 0.00 | 0.00 | 0.00 | 64 | 1008.3 |
| 20260504024537 | 54 | 174 | 2.6 | 7.0 | 0.00 | 0.00 | 0.00 | 64 | 1008.3 |
| 20260504023042 | 54 | 178 | 2.6 | 6.1 | 0.00 | 0.00 | 0.00 | 65 | 1008.3 |
| 20260504021535 | 54 | 156 | 2.6 | 7.8 | 0.00 | 0.00 | 0.00 | 64 | 1008.3 |
| 20260504020037 | 55 | 157 | 3.5 | 6.1 | 0.00 | 0.00 | 0.00 | 62 | 1008.3 |
| 20260504014541 | 56 | 153 | 2.6 | 7.0 | 0.00 | 0.00 | 0.00 | 61 | 1008.3 |
| 20260504013033 | 56 | 196 | 3.5 | 8.7 | 0.00 | 0.00 | 0.00 | 59 | 1008.4 |
| 20260504011532 | 56 | 150 | 2.6 | 8.7 | 0.00 | 0.00 | 0.00 | 58 | 1008.3 |
| 20260504010031 | 57 | 192 | 3.5 | 9.6 | 0.00 | 0.00 | 0.00 | 55 | 1008.3 |
| 20260504004532 | 57 | 201 | 4.3 | 10.4 | 0.00 | 0.00 | 0.00 | 54 | 1008.4 |
| 20260504003034 | 57 | 180 | 3.5 | 7.8 | 0.00 | 0.00 | 0.00 | 53 | 1008.3 |
| 20260504001527 | 58 | 185 | 3.5 | 8.7 | 0.00 | 0.00 | 0.00 | 53 | 1008.4 |
| 20260504000026 | 58 | 188 | 3.5 | 7.0 | 0.00 | 0.00 | 0.00 | 51 | 1008.5 |
| 20260503234537 | 58 | 228 | 2.6 | 8.7 | 0.00 | 0.00 | 0.00 | 51 | 1008.6 |
| 20260503233025 | 58 | 209 | 4.3 | 9.6 | 0.00 | 0.00 | 0.00 | 50 | 1008.6 |
| 20260503231524 | 59 | 180 | 2.6 | 7.8 | 0.00 | 0.00 | 0.00 | 50 | 1008.7 |
| 20260503230023 | 59 | 188 | 3.5 | 7.8 | 0.00 | 0.00 | 0.00 | 49 | 1008.8 |
| 20260503224623 | 59 | 196 | 3.5 | 11.3 | 0.00 | 0.00 | 0.00 | 49 | 1008.6 |
| 20260503223019 | 59 | 188 | 1.7 | 7.8 | 0.00 | 0.00 | 0.00 | 49 | 1008.9 |
| 20260503221520 | 59 | 241 | 4.3 | 9.6 | 0.00 | 0.00 | 0.00 | 47 | 1009.0 |
| 20260503220019 | 59 | 196 | 4.3 | 9.6 | 0.00 | 0.00 | 0.00 | 48 | 1008.9 |
| 20260503214516 | 59 | 198 | 5.2 | 8.7 | 0.00 | 0.00 | 0.00 | 48 | 1009.1 |
| 20260503213013 | 59 | 217 | 3.5 | 11.3 | 0.00 | 0.00 | 0.00 | 47 | 1009.7 |
| 20260503211511 | 59 | 221 | 5.2 | 10.4 | 0.00 | 0.00 | 0.00 | 47 | 1009.9 |
| 20260503210010 | 60 | 244 | 6.1 | 13.0 | 0.00 | 0.00 | 0.00 | 45 | 1010.0 |
| 20260503204507 | 59 | 242 | 3.5 | 12.2 | 0.00 | 0.00 | 0.00 | 47 | 1010.3 |
| 20260503203004 | 59 | 207 | 4.3 | 10.4 | 0.00 | 0.00 | 0.00 | 48 | 1010.5 |
| 20260503201502 | 58 | 184 | 6.1 | 13.0 | 0.00 | 0.00 | 0.00 | 48 | 1010.9 |
| 20260503200101 | 53 | 106 | 2.6 | 6.1 | 0.00 | 0.00 | 0.00 | 63 | 1011.7 |
| 20260503194557 | 52 | 150 | 3.5 | 6.1 | 0.00 | 0.00 | 0.00 | 63 | 1012.0 |
| 20260503193100 | 53 | 76 | 0.9 | 4.3 | 0.00 | 0.00 | 0.00 | 64 | 1013.0 |
| 20260503191654 | 52 | 63 | 0.9 | 2.6 | 0.00 | 0.00 | 0.00 | 63 | 1012.7 |
| 20260503190052 | 52 | 299 | 0.0 | 7.8 | 0.00 | 0.00 | 0.00 | 60 | 1012.8 |
| 20260503184558 | 54 | 183 | 6.1 | 16.5 | 0.00 | 0.00 | 0.00 | 52 | 1013.1 |
| 20260503183110 | 56 | 257 | 5.2 | 13.0 | 0.00 | 0.00 | 0.00 | 48 | 1013.2 |
| 20260503181549 | 57 | 214 | 5.2 | 12.2 | 0.00 | 0.00 | 0.00 | 41 | 1013.2 |
| 20260503180048 | 57 | 158 | 5.2 | 12.2 | 0.00 | 0.00 | 0.00 | 40 | 1013.3 |
| 20260503174544 | 58 | 177 | 5.2 | 10.4 | 0.00 | 0.00 | 0.00 | 42 | 1013.8 |
| 20260503173109 | 57 | 173 | 6.1 | 11.3 | 0.00 | 0.00 | 0.00 | 40 | 1014.0 |
| 20260503171545 | 58 | 182 | 5.2 | 13.0 | 0.00 | 0.00 | 0.00 | 40 | 1014.1 |
| 20260503120125 | 41 | 200 | 1.7 | 6.1 | 0.00 | 0.00 | 0.00 | 70 | 1016.0 |